| time (UTC) | temp C | wind direction | speed KPH | gust KPH | rain 1hr cm | rain 24hr cm | rain mn cm | humidity % | barometer mb |
| 20260507000002 | 18 | 213 | 1.6 | 4.8 | 0.00 | 0.61 | 0.61 | 82 | 1003.9 |
| 20260506234627 | 18 | 289 | 0.0 | 4.8 | 0.00 | 0.61 | 0.61 | 82 | 1003.8 |
| 20260506233003 | 18 | 300 | 1.6 | 9.7 | 0.00 | 0.61 | 0.61 | 81 | 1003.8 |
| 20260506231602 | 18 | 262 | 3.2 | 12.9 | 0.00 | 0.61 | 0.61 | 80 | 1003.6 |
| 20260506230002 | 19 | 288 | 1.6 | 6.4 | 0.00 | 0.61 | 0.61 | 80 | 1003.8 |
| 20260506224602 | 19 | 342 | 0.0 | 14.5 | 0.00 | 0.61 | 0.61 | 79 | 1003.6 |
| 20260506223004 | 20 | 360 | 0.0 | 9.7 | 0.00 | 0.61 | 0.61 | 78 | 1003.5 |
| 20260506221602 | 20 | 259 | 0.0 | 9.7 | 0.00 | 0.61 | 0.61 | 79 | 1003.0 |
| 20260506220002 | 19 | 321 | 1.6 | 8.0 | 0.00 | 0.61 | 0.61 | 80 | 1003.5 |
| 20260506214602 | 19 | 240 | 0.0 | 9.7 | 0.00 | 0.61 | 0.61 | 80 | 1003.4 |
| 20260506211502 | 18 | 182 | 4.8 | 12.9 | 0.00 | 0.61 | 0.61 | 81 | 1003.1 |
| 20260506204502 | 18 | 277 | 0.0 | 9.7 | 0.00 | 0.61 | 0.61 | 83 | 1003.0 |
| 20260506203102 | 18 | 224 | 3.2 | 12.9 | 0.00 | 0.61 | 0.61 | 82 | 1003.0 |
| 20260506201507 | 18 | 330 | 0.0 | 17.7 | 0.00 | 0.61 | 0.61 | 84 | 1003.0 |
| 20260506200113 | 17 | 242 | 4.8 | 17.7 | 0.00 | 0.61 | 0.61 | 84 | 1003.0 |
| 20260506194624 | 17 | 187 | 3.2 | 14.5 | 0.00 | 0.61 | 0.61 | 86 | 1003.2 |
| 20260506193002 | 16 | 348 | 3.2 | 11.3 | 0.00 | 0.61 | 0.61 | 88 | 1003.5 |
| 20260506191602 | 16 | 261 | 1.6 | 12.9 | 0.00 | 0.61 | 0.61 | 90 | 1003.6 |
| 20260506190006 | 16 | 221 | 3.2 | 11.3 | 0.00 | 0.61 | 0.61 | 90 | 1003.8 |
| 20260506184611 | 16 | 284 | 1.6 | 14.5 | 0.00 | 0.61 | 0.61 | 90 | 1003.9 |
| 20260506183002 | 16 | 211 | 3.2 | 12.9 | 0.00 | 0.61 | 0.61 | 88 | 1004.1 |
| 20260506181602 | 16 | 182 | 4.8 | 20.9 | 0.00 | 0.61 | 0.61 | 87 | 1004.1 |
| 20260506180007 | 16 | 179 | 4.8 | 19.3 | 0.00 | 0.61 | 0.61 | 88 | 1004.1 |
| 20260506174604 | 16 | 196 | 4.8 | 14.5 | 0.00 | 0.61 | 0.61 | 88 | 1004.2 |
| 20260506173003 | 16 | 207 | 4.8 | 9.7 | 0.00 | 0.61 | 0.61 | 89 | 1004.1 |
| 20260506171602 | 16 | 168 | 3.2 | 12.9 | 0.05 | 0.61 | 0.61 | 89 | 1004.4 |
| 20260506170008 | 16 | 205 | 8.0 | 24.1 | 0.08 | 0.61 | 0.61 | 89 | 1004.4 |
| 20260506164602 | 16 | 181 | 8.0 | 20.9 | 0.13 | 0.61 | 0.61 | 90 | 1004.3 |
| 20260506163002 | 16 | 173 | 8.0 | 19.3 | 0.28 | 0.61 | 0.61 | 91 | 1004.1 |
| 20260506161607 | 16 | 207 | 4.8 | 19.3 | 0.38 | 0.56 | 0.56 | 91 | 1004.5 |
| 20260506153102 | 16 | 209 | 4.8 | 16.1 | 0.28 | 0.33 | 0.33 | 88 | 1005.6 |
| 20260506151502 | 16 | 196 | 4.8 | 11.3 | 0.18 | 0.18 | 0.18 | 87 | 1005.7 |
| 20260506150108 | 16 | 187 | 4.8 | 12.9 | 0.13 | 0.13 | 0.13 | 87 | 1005.6 |
| 20260506144501 | 16 | 223 | 4.8 | 8.0 | 0.10 | 0.10 | 0.10 | 85 | 1005.3 |
| 20260506143105 | 17 | 207 | 3.2 | 11.3 | 0.05 | 0.05 | 0.05 | 81 | 1005.5 |
| 20260506141603 | 18 | 244 | 9.7 | 19.3 | 0.00 | 0.00 | 0.00 | 76 | 1005.6 |
| 20260506140005 | 18 | 265 | 1.6 | 12.9 | 0.00 | 0.00 | 0.00 | 74 | 1005.5 |
| 20260506134502 | 18 | 247 | 6.4 | 14.5 | 0.00 | 0.00 | 0.00 | 73 | 1005.0 |
| 20260506133104 | 18 | 240 | 1.6 | 14.5 | 0.00 | 0.00 | 0.00 | 75 | 1005.4 |
| 20260506131502 | 18 | 283 | 8.0 | 17.7 | 0.00 | 0.00 | 0.00 | 74 | 1005.4 |
| 20260506130143 | 18 | 262 | 4.8 | 16.1 | 0.00 | 0.00 | 0.00 | 73 | 1005.7 |
| 20260506124502 | 18 | 179 | 4.8 | 17.7 | 0.00 | 0.00 | 0.00 | 72 | 1005.6 |
| 20260506123103 | 18 | 227 | 4.8 | 16.1 | 0.00 | 0.00 | 0.00 | 73 | 1005.6 |
| 20260506121604 | 18 | 184 | 6.4 | 14.5 | 0.00 | 0.00 | 0.00 | 74 | 1005.4 |
| 20260506120002 | 18 | 184 | 8.0 | 16.1 | 0.00 | 0.00 | 0.00 | 74 | 1005.4 |
| 20260506114602 | 17 | 193 | 4.8 | 20.9 | 0.00 | 0.00 | 0.00 | 75 | 1005.3 |
| 20260506113002 | 17 | 211 | 11.3 | 19.3 | 0.00 | 0.00 | 0.00 | 75 | 1005.1 |
| 20260506111602 | 17 | 210 | 4.8 | 14.5 | 0.00 | 0.00 | 0.00 | 75 | 1005.4 |
| 20260506110006 | 17 | 232 | 8.0 | 16.1 | 0.00 | 0.00 | 0.00 | 75 | 1005.1 |
| 20260506104503 | 17 | 244 | 9.7 | 16.1 | 0.00 | 0.00 | 0.00 | 75 | 1005.1 |
| 20260506103102 | 17 | 167 | 8.0 | 19.3 | 0.00 | 0.00 | 0.00 | 75 | 1004.9 |
| 20260506101502 | 17 | 209 | 11.3 | 19.3 | 0.00 | 0.00 | 0.00 | 75 | 1004.9 |
| 20260506100104 | 18 | 183 | 8.0 | 17.7 | 0.00 | 0.00 | 0.00 | 74 | 1004.9 |
| 20260506094507 | 18 | 198 | 8.0 | 17.7 | 0.00 | 0.00 | 0.00 | 74 | 1005.0 |
| 20260506093106 | 18 | 244 | 8.0 | 16.1 | 0.00 | 0.00 | 0.00 | 73 | 1004.8 |
| 20260506091502 | 18 | 215 | 9.7 | 17.7 | 0.00 | 0.00 | 0.00 | 72 | 1004.9 |
| 20260506084507 | 18 | 235 | 9.7 | 17.7 | 0.00 | 0.00 | 0.00 | 70 | 1005.0 |
| 20260506083103 | 19 | 194 | 6.4 | 24.1 | 0.00 | 0.00 | 0.00 | 70 | 1005.1 |
| 20260506073106 | 18 | 175 | 6.4 | 16.1 | 0.00 | 0.00 | 0.00 | 69 | 1005.2 |
| 20260506071502 | 19 | 207 | 6.4 | 16.1 | 0.00 | 0.00 | 0.00 | 68 | 1005.3 |
| 20260506070104 | 19 | 182 | 8.0 | 17.7 | 0.00 | 0.00 | 0.00 | 67 | 1005.2 |
| 20260506061502 | 19 | 157 | 4.8 | 14.5 | 0.00 | 0.00 | 0.00 | 65 | 1005.7 |
| 20260506044603 | 19 | 186 | 1.6 | 14.5 | 0.00 | 0.00 | 0.00 | 62 | 1006.2 |
| 20260506043102 | 19 | 182 | 6.4 | 12.9 | 0.00 | 0.00 | 0.00 | 62 | 1006.3 |
| 20260506041502 | 20 | 198 | 4.8 | 12.9 | 0.00 | 0.00 | 0.00 | 62 | 1006.2 |
| 20260506034501 | 20 | 211 | 4.8 | 14.5 | 0.00 | 0.00 | 0.00 | 61 | 1006.2 |
| 20260506033113 | 20 | 194 | 8.0 | 14.5 | 0.00 | 0.00 | 0.00 | 60 | 1006.0 |
| 20260506031502 | 20 | 194 | 6.4 | 17.7 | 0.00 | 0.00 | 0.00 | 57 | 1006.0 |
| 20260506024502 | 21 | 180 | 6.4 | 14.5 | 0.00 | 0.00 | 0.00 | 53 | 1005.9 |
| 20260506023102 | 21 | 198 | 11.3 | 19.3 | 0.00 | 0.00 | 0.00 | 52 | 1006.0 |
| 20260506021502 | 22 | 180 | 6.4 | 19.3 | 0.00 | 0.00 | 0.00 | 51 | 1005.9 |
| 20260506020103 | 22 | 217 | 4.8 | 14.5 | 0.00 | 0.00 | 0.00 | 49 | 1006.0 |
| 20260506014504 | 22 | 172 | 9.7 | 16.1 | 0.00 | 0.00 | 0.00 | 48 | 1005.8 |
| 20260506013102 | 22 | 184 | 6.4 | 16.1 | 0.00 | 0.00 | 0.00 | 46 | 1005.7 |
| 20260506011502 | 23 | 209 | 6.4 | 19.3 | 0.00 | 0.00 | 0.00 | 46 | 1005.6 |
| 20260506010003 | 23 | 196 | 4.8 | 16.1 | 0.00 | 0.00 | 0.00 | 45 | 1005.4 |
| 20260506004604 | 23 | 180 | 6.4 | 20.9 | 0.00 | 0.00 | 0.00 | 46 | 1005.3 |
| 20260506003003 | 23 | 207 | 6.4 | 16.1 | 0.00 | 0.00 | 0.00 | 45 | 1005.1 |
| 20260506001619 | 24 | 233 | 6.4 | 14.5 | 0.00 | 0.00 | 0.00 | 40 | 1004.9 |